Miscellaneous Local Product
Issued by NWS North Platte, NE

Home | Current Version | Previous Version | Text Only | Print | Product List | Glossary On
Versions: 1 2 3 4 5 6 7 8 9 10 11 12 13 14 15 16 17 18 19 20 21 22 23 24 25 26 27 28 29 30 31 32 33 34 35 36 37 38 39 40 41 42 43 44 45 46 47 48 49 50
000
AXUS43 KLBF 272210
MISLBF


WESTERN AND NORTH CENTRAL NEBRASKA HOURLY WEATHER ROUNDUP
NATIONAL WEATHER SERVICE NORTH PLATTE NE
500 PM CDT MON JUL 27 2015

***STATIONS NOT REPORTING VARIABLES SUCH AS SKY/WEATHER OR
PRESSURE ARE PROVIDED BY THE NEBRASKA DEPARTMENT OF
ROADS...RAWS...AND APRS NETWORKS...AND ARE NOT UNDER
NATIONAL WEATHER SERVICE QUALITY CONTROL***

...OBSERVATIONS IN AND NEAR THE EASTERN PANHANDLE OF NEBRASKA...

CITY           SKY/WX    TMP DP  RH WIND       PRES   REMARKS
PINE RIDGE     SUNNY     94  61  33 S16G26    29.68F HX  94
CHADRON        SUNNY     95  62  33 S25G32    29.66F HX  96
ALLIANCE       SUNNY     90  65  43 SE22      29.76F HX  92
SIDNEY         PTSUNNY   95  57  27 S15G22    29.79F HX  94
BIG SPRINGS      N/A     89  70  53 SE12        N/A  HX  94
$$

...OBSERVATIONS IN NORTH CENTRAL NEBRASKA...

CITY           SKY/WX    TMP DP  RH WIND       PRES   REMARKS
VALENTINE      MOSUNNY   93  65  39 S21G33    29.74F HX  95
THEDFORD       MOSUNNY   90  70  52 S18G25    29.78F HX  95
AINSWORTH      PTSUNNY   92  67  43 S18G25    29.76F HX  95
O`NEILL        SUNNY     90  67  46 S17G25    29.79F HX  93
ORD            MOSUNNY   90  70  51 S20G28    29.78F HX  95
BROKEN BOW     MOSUNNY   88  71  57 S18G29    29.79F HX  94
SPRINGVIEW       N/A     90  71  53 SE10G21     N/A  HX  96
CHAMBERS         N/A     91  72  53 S6G15       N/A  HX  98
EWING            N/A     86  74  67 S9          N/A  HX  94
$$

...OBSERVATIONS IN SOUTHWEST NEBRASKA AND FAR NORTHEAST COLORADO...

CITY           SKY/WX    TMP DP  RH WIND       PRES   REMARKS
WRAY           FAIR      95  62  33 S18G30    29.78F HX  96
IMPERIAL       PTSUNNY   92  67  43 S20G28    29.77F HX  95
OGALLALA       MOSUNNY   91  67  45 S15       29.76F HX  93
NORTH PLATTE   SUNNY     90  69  50 S18G31    29.76F HX  94
MCCOOK         MOSUNNY   94  69  44 S23G32    29.77F HX  99
LEXINGTON      MOSUNNY   91  72  52 S16G22    29.79F HX  98
PAXTON           N/A     89  73  58 SE16        N/A  HX  96
BRADY            N/A     90  74  58 CALM        N/A  HX  98
CALLAWAY         N/A     86  77  74 S20         N/A  HX  97
$$

...NORTH PLATTE AREA...

CITY           SKY/WX    TMP DP  RH WIND       PRES   REMARKS
AIRPORT        SUNNY     90  69  50 S18G31    29.76F HX  94
DOWNTOWN         N/A     91  71  52 S9G21       N/A  HX  97
SANDRIDGE        N/A     90  69  50 S12G22      N/A  HX  94
HILLCREST        N/A     90  71  52 S17G26      N/A  HX  96
$$

...SOME WEATHER OBSERVATIONS FROM AROUND THE REGION...

CITY           SKY/WX    TMP DP  RH WIND       PRES   REMARKS
DENVER         PTSUNNY   95  41  15 S14       29.84F HX  91
LARAMIE        MOSUNNY   83  39  21 SW26G40   29.98F
CHEYENNE       MOSUNNY   90  45  21 S20G25    29.89F
SCOTTSBLUFF    SUNNY     92  59  33 SE14G25   29.73F HX  91
RAPID CITY     MOSUNNY   93  64  38 S13G22    29.64F HX  94
PIERRE         SUNNY     95  65  37 SE28G36   29.65F HX  97
WINNER         FAIR      93  66  40 SE18G28   29.72F HX  96
SIOUX FALLS    FAIR      85  71  63 S14       29.81F HX  90
OMAHA          PTSUNNY   90  73  57 SE16      29.84F HX  98
GRAND ISLAND   FAIR      88  70  55 SE16G25   29.83F HX  93
KANSAS CITY    PTSUNNY   88  78  72 S8        29.88F HX 101
WICHITA        FAIR      97  63  32 S17       29.85F HX  98
HAYS           FAIR      95  68  41 S24G31    29.81F HX  99
LIBERAL        FAIR      99  66  34 S23G30    29.83F HX 102
GOODLAND       MOSUNNY   91  67  44 S21       29.82F HX  94
$$



USA.gov is the U.S. government's official web portal to all federal, state and local government web resources and services.